Location: Katherine
(14.4670°S, 132.2670°E)
Time: 08:04:17
(UTC+09:30)

ISS - Pass Details

Date: 20 May 2017
Orbit: 402 x 408 km, 51.6° (Epoch: 27 May)

Event Time Altitude Azimuth Distance (km) Brightness Sun altitude
Rises 20:04:50 0° 228° (SW) 2,340 0.5 -25.1°
Reaches altitude 10° 20:07:00 10° 236° (SW) 1,474 -0.5 -25.6°
Enters shadow 20:08:40 24° 254° (WSW) 891 -1.6 -26.0°
